Time,TemperatureF,DewpointF,PressureIn,WindDirection,WindDirectionDegrees,WindSpeedMPH,WindSpeedGustMPH,Humidity,HourlyPrecipIn,Conditions,Clouds,dailyrainin,SolarRadiationWatts/m^2,SoftwareType,DateUTC
2015-05-29 00:02:00,63.2,59.6,29.83,ENE,65,1.0,2.0,88,0.00,,---,0.00,0.00,VWS V14.01,2015-05-29 05:02:00,
2015-05-29 00:07:00,62.9,59.3,29.82,ENE,70,1.0,3.0,88,0.00,,---,0.00,0.00,VWS V14.01,2015-05-29 05:07:00,
2015-05-29 00:13:00,62.8,59.2,29.81,ENE,68,3.0,3.0,88,0.00,,---,0.00,0.00,VWS V14.01,2015-05-29 05:13:00,
2015-05-29 00:18:00,62.9,59.3,29.82,NE,55,0.0,3.0,88,0.00,,---,0.00,0.00,VWS V14.01,2015-05-29 05:18:00,
2015-05-29 00:23:00,63.1,59.5,29.83,SSE,156,2.0,3.0,88,0.00,,---,0.00,0.00,VWS V14.01,2015-05-29 05:23:00,
2015-05-29 00:28:00,63.2,59.6,29.82,SE,129,2.0,3.0,88,0.00,,---,0.00,0.00,VWS V14.01,2015-05-29 05:28:00,
2015-05-29 00:33:00,63.1,59.5,29.82,SE,126,3.0,3.0,88,0.00,,---,0.00,0.00,VWS V14.01,2015-05-29 05:33:00,
2015-05-29 00:38:00,63.1,59.5,29.82,ESE,116,3.0,4.0,88,0.00,,---,0.00,0.00,VWS V14.01,2015-05-29 05:38:00,
2015-05-29 00:43:00,63.0,59.4,29.81,SE,124,5.0,7.0,88,0.00,,---,0.00,0.00,VWS V14.01,2015-05-29 05:43:00,
2015-05-29 00:49:00,63.0,59.4,29.80,SE,128,4.0,7.0,88,0.00,,---,0.00,0.00,VWS V14.01,2015-05-29 05:49:00,
2015-05-29 00:54:00,63.0,59.4,29.80,ESE,121,4.0,7.0,88,0.00,,---,0.00,0.00,VWS V14.01,2015-05-29 05:54:00,
2015-05-29 00:59:00,63.1,59.5,29.80,SE,131,3.0,6.0,88,0.00,,---,0.00,0.00,VWS V14.01,2015-05-29 05:59:00,
2015-05-29 01:04:00,63.1,59.5,29.80,SE,131,4.0,6.0,88,0.00,,---,0.00,0.00,VWS V14.01,2015-05-29 06:04:00,
2015-05-29 01:09:00,63.1,59.8,29.80,SE,132,2.0,6.0,89,0.00,,---,0.00,0.00,VWS V14.01,2015-05-29 06:09:00,
2015-05-29 01:14:00,63.1,59.8,29.81,SSE,147,1.0,6.0,89,0.00,,---,0.00,0.00,VWS V14.01,2015-05-29 06:14:00,
2015-05-29 01:19:00,63.2,59.6,29.80,SSE,149,0.0,6.0,88,0.00,,---,0.00,0.00,VWS V14.01,2015-05-29 06:19:00,
2015-05-29 01:24:00,63.1,59.5,29.78,East,100,3.0,6.0,88,0.00,,---,0.00,0.00,VWS V14.01,2015-05-29 06:24:00,
2015-05-29 01:29:00,63.0,59.7,29.79,ESE,103,0.0,3.0,89,0.00,,---,0.00,0.00,VWS V14.01,2015-05-29 06:29:00,
2015-05-29 01:34:00,62.8,59.5,29.79,NE,56,0.0,3.0,89,0.00,,---,0.00,0.00,VWS V14.01,2015-05-29 06:34:00,
2015-05-29 01:40:00,62.5,59.5,29.79,NW,318,2.0,3.0,90,0.00,,---,0.00,0.00,VWS V14.01,2015-05-29 06:40:00,
2015-05-29 01:45:00,62.3,59.6,29.80,WNW,301,1.0,3.0,91,0.00,,---,0.00,0.00,VWS V14.01,2015-05-29 06:45:00,
2015-05-29 01:50:00,62.2,59.5,29.80,WSW,242,0.0,3.0,91,0.00,,---,0.00,0.00,VWS V14.01,2015-05-29 06:50:00,
2015-05-29 01:55:00,62.1,59.5,29.79,ESE,105,2.0,2.0,91,0.00,,---,0.00,0.00,VWS V14.01,2015-05-29 06:55:00,
2015-05-29 02:00:00,62.2,59.5,29.79,SE,141,0.0,2.0,91,0.00,,---,0.00,0.00,VWS V14.01,2015-05-29 07:00:00,
2015-05-29 02:05:00,62.1,59.8,29.79,SE,135,0.0,2.0,92,0.00,,---,0.00,0.00,VWS V14.01,2015-05-29 07:05:00,
2015-05-29 02:10:00,62.2,59.8,29.78,South,181,0.0,2.0,92,0.00,,---,0.00,0.00,VWS V14.01,2015-05-29 07:10:00,
2015-05-29 02:16:00,62.2,59.5,29.77,SSE,160,0.0,2.0,91,0.00,,---,0.00,0.00,VWS V14.01,2015-05-29 07:16:00,
2015-05-29 02:21:00,62.2,59.5,29.78,West,277,1.0,2.0,91,0.00,,---,0.00,0.00,VWS V14.01,2015-05-29 07:21:00,
2015-05-29 02:26:00,61.9,59.5,29.79,West,269,0.0,0.0,92,0.00,,---,0.00,0.00,VWS V14.01,2015-05-29 07:26:00,
2015-05-29 02:31:00,61.5,59.2,29.79,WSW,249,0.0,2.0,92,0.00,,---,0.00,0.00,VWS V14.01,2015-05-29 07:31:00,
2015-05-29 02:36:00,61.4,59.4,29.79,West,276,2.0,2.0,93,0.00,,---,0.00,0.00,VWS V14.01,2015-05-29 07:36:00,
2015-05-29 02:41:00,61.3,59.3,29.79,WNW,293,1.0,2.0,93,0.00,,---,0.00,0.00,VWS V14.01,2015-05-29 07:41:00,
2015-05-29 02:46:00,61.2,59.2,29.79,WNW,287,1.0,3.0,93,0.00,,---,0.00,0.00,VWS V14.01,2015-05-29 07:46:00,
2015-05-29 02:51:00,61.1,59.1,29.79,WNW,291,2.0,3.0,93,0.00,,---,0.00,0.00,VWS V14.01,2015-05-29 07:51:00,
2015-05-29 02:56:00,61.0,59.0,29.79,NW,304,0.0,0.0,93,0.00,,---,0.00,0.00,VWS V14.01,2015-05-29 07:56:00,
2015-05-29 03:01:00,60.7,58.7,29.79,NW,304,1.0,2.0,93,0.00,,---,0.00,0.00,VWS V14.01,2015-05-29 08:01:00,
2015-05-29 03:06:00,60.4,58.4,29.80,WNW,293,0.0,2.0,93,0.00,,---,0.00,0.00,VWS V14.01,2015-05-29 08:06:00,
2015-05-29 03:11:00,60.2,58.2,29.79,NW,314,1.0,2.0,93,0.00,,---,0.00,0.00,VWS V14.01,2015-05-29 08:11:00,
2015-05-29 03:17:00,60.0,58.3,29.79,WNW,297,1.0,2.0,94,0.00,,---,0.00,0.00,VWS V14.01,2015-05-29 08:17:00,
2015-05-29 03:22:00,59.8,58.1,29.78,WNW,298,1.0,2.0,94,0.00,,---,0.00,0.00,VWS V14.01,2015-05-29 08:22:00,
2015-05-29 03:27:00,59.8,58.1,29.78,West,263,0.0,1.0,94,0.00,,---,0.00,0.00,VWS V14.01,2015-05-29 08:27:00,
2015-05-29 03:32:00,59.8,58.1,29.78,WSW,249,0.0,1.0,94,0.00,,---,0.00,0.00,VWS V14.01,2015-05-29 08:32:00,
2015-05-29 03:37:00,60.0,58.3,29.78,West,270,1.0,1.0,94,0.00,,---,0.00,0.00,VWS V14.01,2015-05-29 08:37:00,
2015-05-29 03:42:00,60.1,58.4,29.78,NW,308,1.0,1.0,94,0.00,,---,0.00,0.00,VWS V14.01,2015-05-29 08:42:00,
2015-05-29 03:47:00,59.8,57.8,29.78,WNW,293,0.0,2.0,93,0.00,,---,0.00,0.00,VWS V14.01,2015-05-29 08:47:00,
2015-05-29 03:52:00,59.7,58.0,29.79,WNW,300,1.0,2.0,94,0.00,,---,0.00,0.00,VWS V14.01,2015-05-29 08:52:00,
2015-05-29 03:57:00,59.7,58.0,29.79,WNW,291,0.0,0.0,94,0.00,,---,0.00,0.00,VWS V14.01,2015-05-29 08:57:00,
2015-05-29 04:03:00,59.8,58.1,29.79,WNW,291,1.0,1.0,94,0.00,,---,0.00,0.00,VWS V14.01,2015-05-29 09:03:00,
2015-05-29 04:08:00,59.9,58.2,29.79,WNW,283,0.0,1.0,94,0.00,,---,0.00,0.00,VWS V14.01,2015-05-29 09:08:00,
2015-05-29 04:13:00,60.0,58.3,29.79,WNW,291,1.0,1.0,94,0.00,,---,0.00,0.00,VWS V14.01,2015-05-29 09:13:00,
2015-05-29 04:18:00,59.8,57.8,29.80,NW,304,0.0,2.0,93,0.00,,---,0.00,0.00,VWS V14.01,2015-05-29 09:18:00,
2015-05-29 04:23:00,59.7,58.0,29.79,NW,304,0.0,2.0,94,0.00,,---,0.00,0.00,VWS V14.01,2015-05-29 09:23:00,
2015-05-29 04:28:00,59.8,58.1,29.79,NW,319,3.0,4.0,94,0.00,,---,0.00,0.00,VWS V14.01,2015-05-29 09:28:00,
2015-05-29 04:33:00,59.8,58.1,29.79,West,270,0.0,4.0,94,0.00,,---,0.00,0.00,VWS V14.01,2015-05-29 09:33:00,
2015-05-29 04:38:00,59.8,57.8,29.80,WSW,256,1.0,4.0,93,0.00,,---,0.00,0.00,VWS V14.01,2015-05-29 09:38:00,
2015-05-29 04:43:00,60.0,58.3,29.80,SW,228,0.0,4.0,94,0.00,,---,0.00,0.00,VWS V14.01,2015-05-29 09:43:00,
2015-05-29 04:48:00,60.0,58.0,29.80,WSW,252,0.0,4.0,93,0.00,,---,0.00,0.00,VWS V14.01,2015-05-29 09:48:00,
2015-05-29 04:53:00,60.1,58.1,29.80,WSW,250,0.0,4.0,93,0.00,,---,0.00,0.00,VWS V14.01,2015-05-29 09:53:00,
2015-05-29 04:58:00,59.6,57.9,29.82,NW,325,4.0,8.0,94,0.00,,---,0.00,0.00,VWS V14.01,2015-05-29 09:58:00,
2015-05-29 05:00:00,59.8,57.8,29.81,NW,323,5.0,5.0,93,0.00,,---,0.00,0.00,VWS V14.01,2015-05-29 10:00:00,
2015-05-29 05:09:00,59.4,57.7,29.82,WNW,293,3.0,3.0,94,0.00,,---,0.00,0.00,VWS V14.01,2015-05-29 10:09:00,
2015-05-29 05:14:00,59.3,57.9,29.82,NW,304,5.0,5.0,95,0.00,,---,0.00,0.00,VWS V14.01,2015-05-29 10:14:00,
2015-05-29 05:19:00,59.3,57.9,29.82,NW,325,0.0,5.0,95,0.00,,---,0.00,0.00,VWS V14.01,2015-05-29 10:19:00,
2015-05-29 05:24:00,59.4,58.0,29.83,WNW,301,0.0,5.0,95,0.00,,---,0.00,0.00,VWS V14.01,2015-05-29 10:24:00,
2015-05-29 05:29:00,59.5,58.1,29.83,NW,325,2.0,3.0,95,0.00,,---,0.00,0.00,VWS V14.01,2015-05-29 10:29:00,
2015-05-29 05:30:00,59.4,58.0,29.82,WNW,298,0.0,5.0,95,0.00,,---,0.00,0.00,VWS V14.01,2015-05-29 10:30:00,
2015-05-29 05:34:00,59.6,58.2,29.83,SW,226,0.0,3.0,95,0.00,,---,0.00,0.00,VWS V14.01,2015-05-29 10:34:00,
2015-05-29 05:39:00,59.7,58.3,29.83,WSW,252,0.0,3.0,95,0.00,,---,0.00,0.00,VWS V14.01,2015-05-29 10:39:00,
2015-05-29 05:44:00,59.9,58.2,29.83,WSW,250,0.0,3.0,94,0.00,,---,0.00,0.00,VWS V14.01,2015-05-29 10:44:00,
2015-05-29 05:49:00,60.0,58.3,29.83,SW,214,1.0,3.0,94,0.00,,---,0.00,0.00,VWS V14.01,2015-05-29 10:49:00,
2015-05-29 05:54:00,60.0,58.3,29.83,West,267,1.0,3.0,94,0.00,,---,0.00,0.00,VWS V14.01,2015-05-29 10:54:00,
2015-05-29 05:59:00,60.0,58.3,29.84,SW,218,3.0,3.0,94,0.00,,---,0.00,0.00,VWS V14.01,2015-05-29 10:59:00,
2015-05-29 06:00:00,60.0,58.3,29.84,West,266,0.0,3.0,94,0.00,,---,0.00,0.00,VWS V14.01,2015-05-29 11:00:00,
2015-05-29 06:04:00,60.0,58.3,29.84,WSW,249,1.0,3.0,94,0.00,,---,0.00,0.00,VWS V14.01,2015-05-29 11:04:00,
2015-05-29 06:09:00,60.0,58.3,29.84,SSW,212,0.0,3.0,94,0.00,,---,0.00,0.00,VWS V14.01,2015-05-29 11:09:00,
2015-05-29 06:14:00,60.1,58.4,29.84,SW,224,0.0,3.0,94,0.00,,---,0.00,0.00,VWS V14.01,2015-05-29 11:14:00,
2015-05-29 06:19:00,60.2,58.5,29.85,SW,224,0.0,3.0,94,0.00,,---,0.00,0.00,VWS V14.01,2015-05-29 11:19:00,
2015-05-29 06:25:00,60.2,58.5,29.85,NW,304,0.0,3.0,94,0.00,,---,0.00,0.00,VWS V14.01,2015-05-29 11:25:00,
2015-05-29 06:30:00,60.3,58.6,29.85,WSW,242,0.0,0.0,94,0.00,,---,0.00,0.00,VWS V14.01,2015-05-29 11:30:00,
2015-05-29 06:35:00,60.6,58.9,29.84,SSE,153,3.0,4.0,94,0.00,,---,0.00,0.00,VWS V14.01,2015-05-29 11:35:00,
2015-05-29 06:40:00,60.6,58.9,29.84,SSW,212,0.0,4.0,94,0.00,,---,0.00,0.00,VWS V14.01,2015-05-29 11:40:00,
2015-05-29 06:45:00,60.6,58.9,29.85,NW,312,0.0,4.0,94,0.00,,---,0.00,0.00,VWS V14.01,2015-05-29 11:45:00,
2015-05-29 06:50:00,60.6,58.9,29.84,South,190,1.0,4.0,94,0.00,,---,0.00,0.00,VWS V14.01,2015-05-29 11:50:00,
2015-05-29 06:55:00,60.7,59.0,29.84,South,180,1.0,4.0,94,0.00,,---,0.00,0.00,VWS V14.01,2015-05-29 11:55:00,
2015-05-29 07:00:00,60.7,59.0,29.85,SW,228,0.0,2.0,94,0.00,,---,0.00,0.00,VWS V14.01,2015-05-29 12:00:00,
2015-05-29 07:05:00,60.7,59.0,29.85,WSW,255,0.0,2.0,94,0.00,,---,0.00,0.00,VWS V14.01,2015-05-29 12:05:00,
2015-05-29 07:10:00,60.8,59.1,29.85,SSW,207,0.0,2.0,94,0.00,,---,0.00,0.00,VWS V14.01,2015-05-29 12:10:00,
2015-05-29 07:15:00,61.0,59.3,29.85,SSW,204,0.0,2.0,94,0.00,,---,0.00,0.00,VWS V14.01,2015-05-29 12:15:00,
2015-05-29 07:20:00,61.1,59.4,29.85,SE,144,1.0,2.0,94,0.00,,---,0.00,0.00,VWS V14.01,2015-05-29 12:20:00,
2015-05-29 07:25:00,61.2,59.5,29.85,SSE,167,2.0,2.0,94,0.00,,---,0.00,0.00,VWS V14.01,2015-05-29 12:25:00,
2015-05-29 07:30:00,61.3,59.6,29.85,SSW,212,0.0,3.0,94,0.00,,---,0.00,0.00,VWS V14.01,2015-05-29 12:30:00,
2015-05-29 07:35:00,61.4,59.7,29.85,SSW,193,0.0,3.0,94,0.00,,---,0.00,0.00,VWS V14.01,2015-05-29 12:35:00,
2015-05-29 07:43:00,61.6,59.9,29.85,SW,232,0.0,0.0,94,0.00,,---,0.00,0.00,VWS V14.01,2015-05-29 12:43:00,
2015-05-29 07:48:00,61.8,60.1,29.84,WSW,256,0.0,0.0,94,0.00,,---,0.00,0.00,VWS V14.01,2015-05-29 12:48:00,
2015-05-29 07:53:00,62.0,60.3,29.84,SW,226,0.0,0.0,94,0.00,,---,0.00,0.00,VWS V14.01,2015-05-29 12:53:00,
2015-05-29 07:59:00,62.3,60.2,29.84,South,171,0.0,2.0,93,0.00,,---,0.00,0.00,VWS V14.01,2015-05-29 12:59:00,
2015-05-29 08:00:00,62.0,60.0,29.84,SW,229,0.0,0.0,93,0.00,,---,0.00,0.00,VWS V14.01,2015-05-29 13:00:00,
2015-05-29 08:04:00,62.8,60.8,29.84,SE,136,2.0,3.0,93,0.00,,---,0.00,0.00,VWS V14.01,2015-05-29 13:04:00,
2015-05-29 08:09:00,62.8,60.5,29.84,South,174,0.0,3.0,92,0.00,,---,0.00,0.00,VWS V14.01,2015-05-29 13:09:00,
2015-05-29 08:14:00,63.1,60.7,29.83,SE,142,3.0,3.0,92,0.00,,---,0.00,0.00,VWS V14.01,2015-05-29 13:14:00,
2015-05-29 08:19:00,63.2,60.8,29.84,SSE,162,1.0,4.0,92,0.00,,---,0.00,0.00,VWS V14.01,2015-05-29 13:19:00,
2015-05-29 08:28:00,63.5,61.1,29.83,SSW,200,1.0,1.0,92,0.00,,---,0.00,0.00,VWS V14.01,2015-05-29 13:28:00,
2015-05-29 08:33:00,63.8,61.4,29.83,SSW,203,4.0,5.0,92,0.00,,---,0.00,0.00,VWS V14.01,2015-05-29 13:33:00,
2015-05-29 08:38:00,64.0,61.3,29.84,SSW,194,2.0,5.0,91,0.00,,---,0.00,0.00,VWS V14.01,2015-05-29 13:38:00,
2015-05-29 08:43:00,64.4,61.7,29.83,South,184,3.0,5.0,91,0.00,,---,0.00,0.00,VWS V14.01,2015-05-29 13:43:00,
2015-05-29 08:48:00,64.6,61.6,29.84,SSE,162,0.0,5.0,90,0.00,,---,0.00,0.00,VWS V14.01,2015-05-29 13:48:00,
2015-05-29 08:53:00,64.8,61.8,29.84,SW,218,0.0,5.0,90,0.00,,---,0.00,0.00,VWS V14.01,2015-05-29 13:53:00,
2015-05-29 08:59:00,65.1,61.8,29.84,West,276,0.0,1.0,89,0.00,,---,0.00,0.00,VWS V14.01,2015-05-29 13:59:00,
2015-05-29 09:00:00,64.9,61.9,29.84,SSW,198,0.0,5.0,90,0.00,,---,0.00,0.00,VWS V14.01,2015-05-29 14:00:00,
2015-05-29 09:04:00,65.5,62.2,29.84,SSW,208,0.0,2.0,89,0.00,,---,0.00,0.00,VWS V14.01,2015-05-29 14:04:00,
2015-05-29 09:12:00,66.1,62.5,29.84,SSW,194,2.0,2.0,88,0.00,,---,0.00,0.00,VWS V14.01,2015-05-29 14:12:00,
2015-05-29 09:17:00,66.4,62.4,29.84,SSE,162,1.0,3.0,87,0.00,,---,0.00,0.00,VWS V14.01,2015-05-29 14:17:00,
2015-05-29 09:22:00,66.5,62.5,29.84,SSW,211,0.0,3.0,87,0.00,,---,0.00,0.00,VWS V14.01,2015-05-29 14:22:00,
2015-05-29 09:27:00,66.5,62.2,29.85,WSW,250,1.0,1.0,86,0.00,,---,0.00,0.00,VWS V14.01,2015-05-29 14:27:00,
2015-05-29 09:32:00,66.7,62.4,29.85,SW,224,0.0,3.0,86,0.00,,---,0.00,0.00,VWS V14.01,2015-05-29 14:32:00,
2015-05-29 09:38:00,66.9,62.6,29.85,SW,235,0.0,3.0,86,0.00,,---,0.00,0.00,VWS V14.01,2015-05-29 14:38:00,
2015-05-29 09:43:00,66.9,62.6,29.85,WNW,284,0.0,3.0,86,0.00,,---,0.00,0.00,VWS V14.01,2015-05-29 14:43:00,
2015-05-29 09:48:00,67.0,62.3,29.85,WSW,257,0.0,3.0,85,0.00,,---,0.00,0.00,VWS V14.01,2015-05-29 14:48:00,
2015-05-29 09:53:00,67.2,62.9,29.85,West,262,0.0,3.0,86,0.00,,---,0.00,0.00,VWS V14.01,2015-05-29 14:53:00,
2015-05-29 09:58:00,67.3,62.3,29.85,WSW,239,0.0,1.0,84,0.00,,---,0.00,0.00,VWS V14.01,2015-05-29 14:58:00,
2015-05-29 10:03:00,67.6,62.9,29.85,WNW,285,0.0,1.0,85,0.00,,---,0.00,0.00,VWS V14.01,2015-05-29 15:03:00,
2015-05-29 10:08:00,67.8,63.1,29.85,West,279,0.0,1.0,85,0.00,,---,0.00,0.00,VWS V14.01,2015-05-29 15:08:00,
2015-05-29 10:13:00,68.2,63.2,29.84,West,259,0.0,1.0,84,0.00,,---,0.00,0.00,VWS V14.01,2015-05-29 15:13:00,
2015-05-29 10:18:00,68.5,63.1,29.85,West,281,0.0,1.0,83,0.00,,---,0.00,0.00,VWS V14.01,2015-05-29 15:18:00,
2015-05-29 10:23:00,68.6,63.2,29.85,West,264,0.0,1.0,83,0.00,,---,0.00,0.00,VWS V14.01,2015-05-29 15:23:00,
2015-05-29 10:28:00,68.7,63.0,29.85,SSW,200,0.0,1.0,82,0.00,,---,0.00,0.00,VWS V14.01,2015-05-29 15:28:00,
2015-05-29 10:34:00,69.2,63.5,29.85,SW,215,0.0,1.0,82,0.00,,---,0.00,0.00,VWS V14.01,2015-05-29 15:34:00,
2015-05-29 10:39:00,69.5,62.7,29.86,SW,231,0.0,3.0,79,0.00,,---,0.00,0.00,VWS V14.01,2015-05-29 15:39:00,
2015-05-29 10:44:00,69.5,63.1,29.86,SW,235,0.0,3.0,80,0.00,,---,0.00,0.00,VWS V14.01,2015-05-29 15:44:00,
2015-05-29 10:49:00,69.7,63.3,29.86,SW,225,1.0,3.0,80,0.00,,---,0.00,0.00,VWS V14.01,2015-05-29 15:49:00,
2015-05-29 10:54:00,69.9,63.1,29.85,West,262,0.0,3.0,79,0.00,,---,0.00,0.00,VWS V14.01,2015-05-29 15:54:00,
2015-05-29 10:59:00,70.4,63.2,29.86,WSW,252,0.0,1.0,78,0.00,,---,0.00,0.00,VWS V14.01,2015-05-29 15:59:00,
2015-05-29 11:04:00,71.0,63.4,29.85,WSW,242,0.0,1.0,77,0.00,,---,0.00,0.00,VWS V14.01,2015-05-29 16:04:00,
2015-05-29 11:10:00,70.9,63.0,29.85,SSW,198,1.0,3.0,76,0.00,,---,0.00,0.00,VWS V14.01,2015-05-29 16:10:00,
2015-05-29 11:15:00,70.9,63.0,29.85,SW,226,1.0,3.0,76,0.00,,---,0.00,0.00,VWS V14.01,2015-05-29 16:15:00,
2015-05-29 11:20:00,70.9,63.3,29.85,SSW,202,2.0,3.0,77,0.00,,---,0.00,0.00,VWS V14.01,2015-05-29 16:20:00,
2015-05-29 11:25:00,71.1,63.2,29.85,WSW,240,0.0,3.0,76,0.00,,---,0.00,0.00,VWS V14.01,2015-05-29 16:25:00,
2015-05-29 11:30:00,71.1,63.5,29.86,WNW,295,0.0,2.0,77,0.00,,---,0.00,0.00,VWS V14.01,2015-05-29 16:30:00,
2015-05-29 11:35:00,71.3,63.7,29.85,SW,226,2.0,2.0,77,0.00,,---,0.00,0.00,VWS V14.01,2015-05-29 16:35:00,
2015-05-29 11:40:00,71.5,63.9,29.85,WNW,302,0.0,4.0,77,0.00,,---,0.00,0.00,VWS V14.01,2015-05-29 16:40:00,
2015-05-29 11:45:00,71.7,63.4,29.85,SW,219,0.0,4.0,75,0.00,,---,0.00,0.00,VWS V14.01,2015-05-29 16:45:00,